EDT,Max TemperatureF,Mean TemperatureF,Min TemperatureF,Max Dew PointF,MeanDew PointF,Min DewpointF,Max Humidity, Mean Humidity, Min Humidity, Max Sea Level PressureIn, Mean Sea Level PressureIn, Min Sea Level PressureIn, Max VisibilityMiles, Mean VisibilityMiles, Min VisibilityMiles, Max Wind SpeedMPH, Mean Wind SpeedMPH, Max Gust SpeedMPH,PrecipitationIn, CloudCover, Events, WindDirDegrees
2013-6-1,80,70,62,68,63,61,100,85,64,29.97,29.85,29.72,10,8,2,21,10,34,1.00,6,Rain-Thunderstorm,203
2013-6-2,75,66,59,63,58,51,88,74,59,29.96,29.82,29.71,10,10,10,18,13,26,0.00,6,,261
2013-6-3,69,61,53,49,44,37,72,59,32,30.09,30.01,29.95,10,10,10,13,8,,0.00,5,,6
2013-6-4,73,59,46,46,43,40,89,55,37,30.17,30.13,30.09,10,10,10,15,4,17,0.00,0,,61
2013-6-5,77,65,53,49,45,42,69,51,37,30.13,30.03,29.93,10,10,10,18,8,23,0.00,0,,64
2013-6-6,64,60,55,55,52,48,90,74,62,29.91,29.85,29.83,10,10,6,14,11,,0.00,5,,48
2013-6-7,63,56,51,54,52,49,100,84,69,29.90,29.86,29.83,10,6,2,9,4,,0.00,6,,3
2013-6-8,77,63,51,54,50,48,94,68,38,30.04,29.96,29.90,10,7,2,8,3,,0.00,4,,240
2013-6-9,84,72,63,63,57,54,75,60,39,30.06,30.00,29.91,10,10,10,14,7,21,0.00,5,Rain,133
2013-6-10,79,72,66,66,64,61,94,84,58,29.89,29.79,29.71,10,8,2,17,8,22,0.31,7,Rain-Thunderstorm,195
2013-6-11,84,74,64,64,63,61,94,78,47,29.92,29.86,29.77,10,7,3,15,9,21,0.00,5,,272
2013-6-12,88,76,64,72,67,62,90,72,55,29.90,29.80,29.60,10,9,6,12,5,,0.00,2,Thunderstorm,204
2013-6-13,79,71,64,70,60,50,94,76,39,29.89,29.69,29.53,10,8,1,21,15,45,0.78,5,Rain-Thunderstorm,306
2013-6-14,78,68,60,58,55,52,90,66,44,30.06,30.00,29.90,10,10,10,13,6,18,0.00,2,,8
2013-6-15,80,68,57,63,57,53,90,70,43,30.09,30.02,29.94,10,10,10,14,5,28,0.00,4,Rain,195
2013-6-16,82,74,66,66,64,62,88,75,58,29.93,29.89,29.86,10,9,4,21,12,29,0.16,5,Rain,243
2013-6-17,86,74,64,70,64,55,100,74,36,29.95,29.91,29.85,10,7,2,12,6,20,0.00,2,,241
2013-6-18,77,69,62,63,60,52,90,74,56,30.03,29.93,29.84,10,10,6,16,8,23,0.00,3,,30
2013-6-19,75,64,54,53,48,45,75,54,33,30.14,30.09,30.04,10,10,10,14,9,,0.00,0,,60
2013-6-20,84,70,55,59,52,46,75,53,35,30.20,30.16,30.13,10,10,10,9,5,,0.00,1,,143
2013-6-21,88,74,62,60,56,53,78,53,33,30.19,30.15,30.06,10,10,10,15,8,21,0.00,0,,170
2013-6-22,91,80,68,69,65,60,81,63,41,30.10,30.07,29.99,10,10,9,17,8,26,0.00,1,Thunderstorm,210
2013-6-23,91,80,69,67,64,61,84,62,38,30.10,30.05,29.99,10,10,7,20,8,41,0.00,2,Thunderstorm,213
2013-6-24,88,77,66,66,65,61,93,66,46,30.09,30.03,29.96,10,9,4,18,9,24,0.00,1,,215
2013-6-25,93,80,70,70,66,61,81,62,43,29.98,29.91,29.80,10,10,8,21,12,29,0.00,1,Thunderstorm,240
2013-6-26,86,76,66,70,66,63,93,75,55,29.92,29.82,29.75,10,10,8,20,9,32,0.07,3,Rain-Thunderstorm,194
2013-6-27,86,76,68,70,68,66,100,86,57,29.76,29.72,29.63,10,6,1,14,6,20,1.99,6,Rain,243
2013-6-28,84,73,64,67,64,57,96,78,45,29.62,29.59,29.52,10,7,2,22,8,34,0.33,5,Rain-Thunderstorm,301
2013-6-29,75,68,60,64,62,58,94,81,60,29.68,29.60,29.53,10,8,2,10,3,29,0.01,4,Rain-Thunderstorm,44
2013-6-30,75,68,64,63,61,58,90,75,61,29.88,29.79,29.68,10,10,10,17,11,23,0.00,5,Rain,40